Location: Mahannah Oil Field
(37.4664°N, 96.6003°W)
Time: 09:47:59
(UTC+00:00)

deb Explorer IX - Pass Details

Date: 31 January 2021
Orbit: 538 x 1101 km, 38.8° (Epoch: 07 March)

Event Time Altitude Azimuth Distance (km) Brightness Sun altitude
Rises 02:02:53 0° 285° (WNW) 3,697 ? -26.7°
Reaches altitude 10° 02:05:45 10° 281° (W) 2,666 ? -27.3°
Maximum altitude 02:11:57 55° 206° (SSW) 1,006 ? -28.5°
Enters shadow 02:12:23 54° 188° (S) 1,012 ? -28.6°
